User: anonymous   Login
Location: Unspecified
(0.0000°N, 0.0000°E)
Time: 00:08:43
(UTC+00:00)
Language:

N. Korean satellite - Orbit

View from above orbital plane
View from above orbital plane
View from above satellite
View from above satellite

Ground track
Ground track

The orbit data is extracted from the following two-line orbital elements,

1 39026U 12072A   16240.92976511 +.00002122 +00000-0 +88234-4 0  9991
2 39026 097.2455 262.7369 0043621 132.6700 227.8226 15.23987440205249
Epoch (UTC): 27 August 2016 22:18:51
Eccentricity: 0.0043621
inclination: 97.2455°
perigee height: 464 km
apogee height: 524 km
right ascension of ascending node: 262.7369°
argument of perigee: 132.6700°
revolutions per day: 15.23987440
mean anomaly at epoch: 227.8226°
orbit number at epoch: 20524

The dashed part of the orbit path shows where the satellite is in the earth's shadow,  

DLR